Simultaneous Nadir Overpasses (SNOs) Predictions

Prediction of SNOs between METOP-B and TERRA Satellite Orbit:

Table of predicted SNOs for the next 14.0 days since TLE Epoch: 6/16/2017
Index Date (METOP-B) Time (METOP-B) Lat,Lon (METOP-B) SZA (METOP-B ) Date (TERRA) Time (TERRA) Lat,Lon (TERRA) SZA (TERRA ) Distance(km) Time Diff (sec)
1 06/18/2017 06:02:46 81.33, 136.86 60.86 06/18/2017 06:03:48 81.32, 136.70 60.86 2.86 62
2 06/18/2017 06:53:25 -81.34, -55.19 119.07 06/18/2017 06:53:14 -81.34, -55.33 119.10 2.44 11
3 06/21/2017 01:37:06 81.33,-156.80 60.80 06/21/2017 01:38:02 81.32,-156.85 60.82 1.16 56
4 06/21/2017 02:27:45 -81.34, 11.16 119.13 06/21/2017 02:27:28 -81.34, 11.14 119.14 0.46 17
5 06/23/2017 21:11:26 81.33, -90.08 60.84 06/23/2017 21:12:16 81.34, -90.05 60.88 1.00 50
6 06/23/2017 22:02:06 -81.34, 77.50 119.13 06/23/2017 22:01:43 -81.34, 77.59 119.13 1.47 23
7 06/26/2017 16:45:47 81.33, -23.77 60.89 06/26/2017 16:46:31 81.34, -23.66 60.93 1.91 44
8 06/26/2017 17:36:27 -81.34, 143.83 119.08 06/26/2017 17:35:58 -81.34, 143.99 119.07 2.78 29
9 06/29/2017 12:20:07 81.33, 42.53 61.00 06/29/2017 12:20:45 81.34, 42.70 61.03 2.72 38




NCC Satellite Simultaneous Nadir Overpasses (SNOs) Prediction Service
